Погода в Атафу

Токелау     11°03′10″S   171°05′07″W
темп.,
°C
ветер,
м/с
пор.,
м/с
влажн.,
%
обл.,
%
осадки,
мм/ч
давл.,
гПа
погр.,
м
21 апреля, ср
ср2101:00+27с4476100 3.5 1011422
04:00+28вюв5572100 0.0 1010746
07:00+29вюв6773100 0.0 1012881
10:00+29вюв787383 0.0 10131065
13:00+28вюв787652 1.8 1010786
16:00+29в8974100 2.9 10091108
19:00+29вюв9972100 3.0 10101065
22:00+29вюв10117493 0.0 1012830
22 апреля, чт
чт2201:00+28в10107782 3.9 1011996
04:00+28в897099 0.3 1010981
07:00+29в787098 0.3 10111190
10:00+29в667495 1.3 1012826
13:00+29в6774100 5.9 1010860
16:00+28в6776100 2.4 1008560
19:00+29в8874100 2.8 10101017
22:00+29в787598 0.0 1011910
23 апреля, пт
пт2301:00+29в8874100 0.0 1010891
04:00+29в787473 0.1 10091060
07:00+28в7876100 1.3 1010938
10:00+28всв7875100 0.9 1012742
13:00+28всв6677100 2.5 1010671
16:00+28в5679100 4.6 1009374
19:00+28в4571100 8.9 1010467
22:00+28ююв3476100 2.7 1012260
24 апреля, сб
сб2401:00+27ююв1171100 5.1 1010469
04:00+28всв2371100 0.1 1010710
07:00+28всв5570100 0.6 1011740
10:00+27в6670100 0.0 1013711
13:00+27в556998 0.0 1010693
16:00+28вюв446975 0.0 1008649
19:00+28юв3367100 0.0 1011615
22:00+28юв456849 0.0 1012758
25 апреля, вс
вс2501:00+28вюв346979 0.0 1010767
04:00+28вюв447160 0.0 1009875
07:00+29в4471100 0.0 1011946
10:00+29в447238 0.0 1011875
13:00+29всв33715 0.8 1010800
16:00+28в33715 0.9 1008628
19:00+28в33685 1.5 1010613
22:00+28в33685 0.0 1011790